Location: Paris
(48.6709°N, 2.3750°E)
Time: 10:11:02
(UTC+02:00)

Gurwin Techsat 1B - Pass Details

Date: 05 July 2022
Orbit: 812 x 813 km, 98.8° (Epoch: 07 August)

Event Time Altitude Azimuth Distance (km) Brightness Sun altitude
Rises 04:07:24 0° 18° (NNE) 3,347 13.6 -12.7°
Reaches altitude 10° 04:09:49 10° 24° (NNE) 2,411 12.6 -12.5°
Maximum altitude 04:15:01 52° 100° (E) 1,003 9.3 -12.0°
Drops below altitude 10° 04:20:11 10° 177° (S) 2,394 10.6 -11.5°
Enters shadow 04:20:27 - 178° (S) 2,498 10.7 -11.5°
